Location: Unspecified
(43.4680°N, 87.1740°E)
Time: 07:22:58
(UTC+00:00)

NOSS 0 Rocket - Pass Details

Date: 07 August 2021
Orbit: 936 x 954 km, 70.0° (Epoch: 18 September)

Event Time Altitude Azimuth Distance (km) Brightness Sun altitude
Rises 15:01:52 0° 338° (NNW) 3,636 8.2 -15.5°
Reaches altitude 10° 15:04:41 10° 348° (NNW) 2,685 7.1 -15.8°
Maximum altitude 15:10:19 34° 53° (NE) 1,502 4.9 -16.6°
Enters shadow 15:13:36 21° 102° (ESE) 1,983 5.1 -17.0°
